category,name,time,total,current
"抽蓄負載(Pumping Load)",明潭#2,00:00:00,0,0
"抽蓄負載(Pumping Load)",明潭#2,00:10:00,0,0
"抽蓄負載(Pumping Load)",明潭#2,00:20:00,0,0
"抽蓄負載(Pumping Load)",明潭#2,00:30:00,0,0
"抽蓄負載(Pumping Load)",明潭#2,00:40:00,0,0
"抽蓄負載(Pumping Load)",明潭#2,00:50:00,0,0
"抽蓄負載(Pumping Load)",明潭#2,01:00:00,0,0
"抽蓄負載(Pumping Load)",明潭#2,01:10:00,0,0
"抽蓄負載(Pumping Load)",明潭#2,01:20:00,0,0
"抽蓄負載(Pumping Load)",明潭#2,01:30:00,0,0
"抽蓄負載(Pumping Load)",明潭#2,01:40:00,0,0
"抽蓄負載(Pumping Load)",明潭#2,01:50:00,0,0
"抽蓄負載(Pumping Load)",明潭#2,02:00:00,0,-258.7
"抽蓄負載(Pumping Load)",明潭#2,02:10:00,0,-262.7
"抽蓄負載(Pumping Load)",明潭#2,02:20:00,0,-262
"抽蓄負載(Pumping Load)",明潭#2,02:30:00,0,-264.4
"抽蓄負載(Pumping Load)",明潭#2,02:40:00,0,-264.4
"抽蓄負載(Pumping Load)",明潭#2,02:50:00,0,-263.7
"抽蓄負載(Pumping Load)",明潭#2,03:00:00,0,-262.4
"抽蓄負載(Pumping Load)",明潭#2,03:10:00,0,-263.4
"抽蓄負載(Pumping Load)",明潭#2,03:20:00,0,-263
"抽蓄負載(Pumping Load)",明潭#2,03:30:00,0,-262
"抽蓄負載(Pumping Load)",明潭#2,03:40:00,0,-262
"抽蓄負載(Pumping Load)",明潭#2,03:50:00,0,-260.3
"抽蓄負載(Pumping Load)",明潭#2,04:00:00,0,-263
"抽蓄負載(Pumping Load)",明潭#2,04:10:00,0,-261.3
"抽蓄負載(Pumping Load)",明潭#2,04:20:00,0,-262.4
"抽蓄負載(Pumping Load)",明潭#2,04:30:00,0,-262.7
"抽蓄負載(Pumping Load)",明潭#2,04:40:00,0,-259.7
"抽蓄負載(Pumping Load)",明潭#2,04:50:00,0,-261.7
"抽蓄負載(Pumping Load)",明潭#2,05:00:00,0,-258.7
"抽蓄負載(Pumping Load)",明潭#2,05:10:00,0,-261
"抽蓄負載(Pumping Load)",明潭#2,05:20:00,0,-260.3
"抽蓄負載(Pumping Load)",明潭#2,05:30:00,0,-258.7
"抽蓄負載(Pumping Load)",明潭#2,05:40:00,0,-259.3
"抽蓄負載(Pumping Load)",明潭#2,05:50:00,0,-257
"抽蓄負載(Pumping Load)",明潭#2,06:00:00,0,-256.3
"抽蓄負載(Pumping Load)",明潭#2,06:10:00,0,-258.3
"抽蓄負載(Pumping Load)",明潭#2,06:20:00,0,-257
"抽蓄負載(Pumping Load)",明潭#2,06:30:00,0,-258.3
"抽蓄負載(Pumping Load)",明潭#2,06:40:00,0,-256
"抽蓄負載(Pumping Load)",明潭#2,06:50:00,0,-257.3
"抽蓄負載(Pumping Load)",明潭#2,07:00:00,0,-254.3
"抽蓄負載(Pumping Load)",明潭#2,07:10:00,0,-255
"抽蓄負載(Pumping Load)",明潭#2,07:20:00,0,-252.9
"抽蓄負載(Pumping Load)",明潭#2,07:30:00,0,-253.3
"抽蓄負載(Pumping Load)",明潭#2,07:40:00,0,-253.3
"抽蓄負載(Pumping Load)",明潭#2,07:50:00,0,0
"抽蓄負載(Pumping Load)",明潭#2,08:00:00,0,0
"抽蓄負載(Pumping Load)",明潭#2,08:10:00,0,0
"抽蓄負載(Pumping Load)",明潭#2,08:20:00,0,0
"抽蓄負載(Pumping Load)",明潭#2,08:30:00,0,0
"抽蓄負載(Pumping Load)",明潭#2,08:40:00,0,0
"抽蓄負載(Pumping Load)",明潭#2,08:50:00,0,0
"抽蓄負載(Pumping Load)",明潭#2,09:00:00,0,0
"抽蓄負載(Pumping Load)",明潭#2,09:10:00,0,0
"抽蓄負載(Pumping Load)",明潭#2,09:20:00,0,0
"抽蓄負載(Pumping Load)",明潭#2,09:30:00,0,0
"抽蓄負載(Pumping Load)",明潭#2,09:40:00,0,0
"抽蓄負載(Pumping Load)",明潭#2,09:50:00,0,0
"抽蓄負載(Pumping Load)",明潭#2,10:00:00,0,0
"抽蓄負載(Pumping Load)",明潭#2,10:10:00,0,0
"抽蓄負載(Pumping Load)",明潭#2,10:20:00,0,0
"抽蓄負載(Pumping Load)",明潭#2,10:30:00,0,0
"抽蓄負載(Pumping Load)",明潭#2,10:40:00,0,0
"抽蓄負載(Pumping Load)",明潭#2,10:50:00,0,0
"抽蓄負載(Pumping Load)",明潭#2,11:00:00,0,0
"抽蓄負載(Pumping Load)",明潭#2,11:10:00,0,0
"抽蓄負載(Pumping Load)",明潭#2,11:20:00,0,0
"抽蓄負載(Pumping Load)",明潭#2,11:30:00,0,0
"抽蓄負載(Pumping Load)",明潭#2,11:40:00,0,0
"抽蓄負載(Pumping Load)",明潭#2,11:50:00,0,0
"抽蓄負載(Pumping Load)",明潭#2,12:00:00,0,0
"抽蓄負載(Pumping Load)",明潭#2,12:10:00,0,0
"抽蓄負載(Pumping Load)",明潭#2,12:20:00,0,0
"抽蓄負載(Pumping Load)",明潭#2,12:30:00,0,0
"抽蓄負載(Pumping Load)",明潭#2,12:40:00,0,0
"抽蓄負載(Pumping Load)",明潭#2,12:50:00,0,0
"抽蓄負載(Pumping Load)",明潭#2,13:00:00,0,0
"抽蓄負載(Pumping Load)",明潭#2,13:10:00,0,0
"抽蓄負載(Pumping Load)",明潭#2,13:20:00,0,0
"抽蓄負載(Pumping Load)",明潭#2,13:30:00,0,0
"抽蓄負載(Pumping Load)",明潭#2,13:40:00,0,0
"抽蓄負載(Pumping Load)",明潭#2,13:50:00,0,0
"抽蓄負載(Pumping Load)",明潭#2,14:00:00,0,0
"抽蓄負載(Pumping Load)",明潭#2,14:10:00,0,0
"抽蓄負載(Pumping Load)",明潭#2,14:20:00,0,0
"抽蓄負載(Pumping Load)",明潭#2,14:30:00,0,0
"抽蓄負載(Pumping Load)",明潭#2,14:40:00,0,0
"抽蓄負載(Pumping Load)",明潭#2,14:50:00,0,0
"抽蓄負載(Pumping Load)",明潭#2,15:00:00,0,0
"抽蓄負載(Pumping Load)",明潭#2,15:10:00,0,0
"抽蓄負載(Pumping Load)",明潭#2,15:20:00,0,0
"抽蓄負載(Pumping Load)",明潭#2,15:30:00,0,0
"抽蓄負載(Pumping Load)",明潭#2,15:40:00,0,0
"抽蓄負載(Pumping Load)",明潭#2,15:50:00,0,0
"抽蓄負載(Pumping Load)",明潭#2,16:00:00,0,0
"抽蓄負載(Pumping Load)",明潭#2,16:10:00,0,0
"抽蓄負載(Pumping Load)",明潭#2,16:20:00,0,0
"抽蓄負載(Pumping Load)",明潭#2,16:30:00,0,0
"抽蓄負載(Pumping Load)",明潭#2,16:40:00,0,0
"抽蓄負載(Pumping Load)",明潭#2,16:50:00,0,0
"抽蓄負載(Pumping Load)",明潭#2,17:00:00,0,0
"抽蓄負載(Pumping Load)",明潭#2,17:10:00,0,0
"抽蓄負載(Pumping Load)",明潭#2,17:20:00,0,0
"抽蓄負載(Pumping Load)",明潭#2,17:30:00,0,0
"抽蓄負載(Pumping Load)",明潭#2,17:40:00,0,0
"抽蓄負載(Pumping Load)",明潭#2,17:50:00,0,0
"抽蓄負載(Pumping Load)",明潭#2,18:00:00,0,0
"抽蓄負載(Pumping Load)",明潭#2,18:10:00,0,0
"抽蓄負載(Pumping Load)",明潭#2,18:20:00,0,0
"抽蓄負載(Pumping Load)",明潭#2,18:30:00,0,0
"抽蓄負載(Pumping Load)",明潭#2,18:40:00,0,0
"抽蓄負載(Pumping Load)",明潭#2,18:50:00,0,0
"抽蓄負載(Pumping Load)",明潭#2,19:00:00,0,0
"抽蓄負載(Pumping Load)",明潭#2,19:10:00,0,0
"抽蓄負載(Pumping Load)",明潭#2,19:20:00,0,0
"抽蓄負載(Pumping Load)",明潭#2,19:30:00,0,0
"抽蓄負載(Pumping Load)",明潭#2,19:40:00,0,0
"抽蓄負載(Pumping Load)",明潭#2,19:50:00,0,0
"抽蓄負載(Pumping Load)",明潭#2,20:00:00,0,0
"抽蓄負載(Pumping Load)",明潭#2,20:10:00,0,0
"抽蓄負載(Pumping Load)",明潭#2,20:20:00,0,0
"抽蓄負載(Pumping Load)",明潭#2,20:30:00,0,0
"抽蓄負載(Pumping Load)",明潭#2,20:40:00,0,0
"抽蓄負載(Pumping Load)",明潭#2,20:50:00,0,0
"抽蓄負載(Pumping Load)",明潭#2,21:00:00,0,0
"抽蓄負載(Pumping Load)",明潭#2,21:10:00,0,0
"抽蓄負載(Pumping Load)",明潭#2,21:20:00,0,0
"抽蓄負載(Pumping Load)",明潭#2,21:30:00,0,0
"抽蓄負載(Pumping Load)",明潭#2,21:40:00,0,0
"抽蓄負載(Pumping Load)",明潭#2,21:50:00,0,0
"抽蓄負載(Pumping Load)",明潭#2,22:00:00,0,0
"抽蓄負載(Pumping Load)",明潭#2,22:10:00,0,0
"抽蓄負載(Pumping Load)",明潭#2,22:20:00,0,0
"抽蓄負載(Pumping Load)",明潭#2,22:30:00,0,0
"抽蓄負載(Pumping Load)",明潭#2,22:40:00,0,0
"抽蓄負載(Pumping Load)",明潭#2,22:50:00,0,0
"抽蓄負載(Pumping Load)",明潭#2,23:00:00,0,0
"抽蓄負載(Pumping Load)",明潭#2,23:10:00,0,0
"抽蓄負載(Pumping Load)",明潭#2,23:20:00,0,0
"抽蓄負載(Pumping Load)",明潭#2,23:30:00,0,0
"抽蓄負載(Pumping Load)",明潭#2,23:40:00,0,0
"抽蓄負載(Pumping Load)",明潭#2,23:50:00,0,0
